Location: Lafig�re
(44.4503°N, 4.0357°E)
Time: 23:53:54
(UTC+00:00)

Cosmos 2150 Rocket - Pass Details

Date: 24 January 2021
Orbit: 748 x 808 km, 74.0° (Epoch: 06 March)

Event Time Altitude Azimuth Distance (km) Brightness Sun altitude
Exits shadow 06:12:18 - 332° (NNW) 2,995 6.6 -10.5°
Reaches altitude 10° 06:14:01 10° 328° (NNW) 2,351 6.1 -10.2°
Maximum altitude 06:19:07 47° 256° (WSW) 1,048 4.4 -9.3°
Drops below altitude 10° 06:24:16 10° 184° (S) 2,368 6.7 -8.4°
Sets 06:26:44 0° 178° (S) 3,300 7.6 -8.0°
